Regional Weather Roundup
Issued by NWS Sioux Falls, SD

Home | Current Version | Previous Version | Graphics & Text | Print | Product List | Glossary On
Versions: 1 2 3 4 5 6 7 8 9 10 11 12 13 14 15 16 17 18 19 20 21 22 23 24 25 26 27 28 29 30 31 32 33 34 35 36 37 38 39 40 41 42 43 44 45 46 47 48 49 50
000
ASUS43 KFSD 271110
RWRFSD

WEATHER ROUNDUP FOR SE SOUTH DAKOTA/SW MINNESOTA/NW IOWA
NATIONAL WEATHER SERVICE SIOUX FALLS SD
500 AM CST FRI FEB 27 2015

NOTE: "FAIR" INDICATES FEW OR NO CLOUDS BELOW 12,000 FEET WITH NO
SIGNIFICANT WEATHER AND OR OBSTRUCTIONS TO VISIBILITY.


SDZ038>040-050-052>070-271200-
SOUTHEAST SOUTH DAKOTA

CITY           SKY/WX    TMP DP  RH WIND       PRES   REMARKS
CHAMBERLAIN    CLEAR     -6  -9  84 CALM      30.49F
HURON          MOCLDY   -17 -22  78 CALM      30.53S
MADISON        FAIR      -9 N/A N/A W3        30.47S
MITCHELL       CLEAR     -5 -10  79 SW5       30.55S WCI -16
SIOUX FALLS    CLEAR     -9 -13  83 W5        30.52R WCI -20
WINNER         FAIR       1  -9  62 SW5       30.45F WCI  -9
YANKTON        CLEAR     -2 -11  65 CALM      30.56S
$$

MNZ071-072-080-081-089-090-097-098-271200-
SOUTHWEST MINNESOTA

CITY           SKY/WX    TMP DP  RH WIND       PRES   REMARKS
FAIRMONT       PTCLDY    -8 -18  59 W6        30.49R WCI -21
JACKSON        CLEAR    -11 -18  70 W7        30.49S WCI -26
LUVERNE        PTCLDY    -8 -15  71 CALM      30.52S
MARSHALL       CLEAR     -8 -15  71 W7        30.52S WCI -22
MONTEVIDEO     CLEAR     -9 -13  84 W6        30.53S WCI -23
PIPESTONE      PTCLDY   -15 -18  84 CALM      30.47S
REDWOOD FALLS  CLEAR     -9 -14  78 W7        30.53S WCI -24
TRACY          CLEAR     -6 -12  75 W7        30.50S WCI -20
WINDOM         CLEAR    -15 -18  84 CALM      30.49S
WORTHINGTON    CLEAR     19 -26  12 W8        30.50S WCI   9
$$

IAZ001>003-012>014-020>022-031-032-NEZ013-014-SDZ071-271200-
NORTHWEST IOWA

CITY           SKY/WX    TMP DP  RH WIND       PRES   REMARKS
CHEROKEE       PTCLDY   -19 -24  78 CALM      30.56R
DENISON        PTCLDY   -15 -20  76 CALM      30.55S
ESTHERVILLE    CLEAR    -12 -17  78 W9        30.51R WCI -30
LE MARS        CLEAR    -11 -15  84 S5        30.58R WCI -23
ORANGE CITY    CLEAR     -9 -15  77 CALM      30.52R
SHELDON        CLEAR    -11 -17  77 CALM      30.52R
SIOUX CITY     CLEAR     -6 -10  83 NW5       30.58F WCI -17
SPENCER        CLEAR    -14 -20  74 W7        30.53R WCI -30
STORM LAKE     PTCLDY   -11 -18  70 W9        30.53S WCI -29
$$

ABBREVIATIONS USED IN REMARKS
   TC - TEMPERATURE IN CELSIUS
  WCI - WIND CHILL INDEX
   HX - HEAT INDEX
  VSB - VISIBILITY




USA.gov is the U.S. government's official web portal to all federal, state and local government web resources and services.